RH
23 24 22 24 23 24 25 25 24 26 25 31 39 38 38 40 37 31 40 35 36 39 39 46 51 48 41 38 39 37 38 38 41 40 42 44 43 37 38 40 42 41 45 45 42 42 42 41 39
23 23 25 25 23 22 22 24 25 28 29 32 39 38 41 43 41 39 39 35 36 35 38 40 40 40 36 35 34 36 35 36 36 34 33 33 33 33 35 37 41 39 37 38 39 40 40 38 39
23 25 26 26 24 21 21 22 22 34 33 34 38 39 42 44 42 35 34 33 33 34 35 35 34 34 33 33 32 31 31 30 30 30 30 29 26 26 32 37 38 38 36 36 35 36 36 37 39
24 28 26 26 23 21 20 22 29 37 37 38 36 39 43 45 41 35 30 31 30 32 33 33 33 32 31 28 28 26 25 24 24 25 25 24 25 24 21 25 29 29 30 30 30 31 31 33 36
25 29 30 32 25 22 21 25 32 35 37 39 38 40 42 45 41 37 30 29 31 31 31 31 30 27 25 24 22 20 19 18 18 18 17 16 15 15 14 15 14 16 20 23 24 25 26 28 29
32 27 28 31 25 23 25 25 32 37 40 39 38 41 43 43 39 39 32 28 28 28 28 28 25 23 21 17 14 12 11 11 11 10 10 10 10 10 9 9 9 10 12 14 15 17 20 24 25
38 32 25 22 20 23 26 28 32 39 40 39 39 40 41 41 41 37 31 27 25 26 27 25 22 16 13 11 10 10 10 10 10 10 10 10 9 9 9 9 9 10 11 12 12 12 13 15 16
38 36 27 21 16 17 23 30 34 39 41 39 40 41 40 40 39 35 27 25 24 26 25 19 15 13 11 10 10 10 10 11 11 11 10 10 10 10 10 10 10 10 10 10 12 12 13 13 14
40 39 30 22 19 15 21 28 34 38 42 39 37 36 36 39 36 31 26 24 25 23 18 15 14 12 10 9 10 11 11 12 12 11 11 11 11 11 11 11 11 11 12 12 13 14 14 14 15
41 41 34 22 19 17 19 25 29 38 39 37 35 33 33 35 32 27 25 23 21 18 16 14 12 11 10 9 10 12 12 12 11 11 11 11 11 11 12 12 13 13 14 15 15 15 16 17 18
40 40 31 26 21 20 19 24 26 33 38 31 30 29 29 31 29 26 24 22 19 17 15 13 12 10 10 10 11 12 13 12 12 11 11 11 12 12 12 13 14 15 15 15 15 17 17 18 18
41 38 32 29 24 23 21 23 26 31 31 27 28 27 30 28 27 24 23 20 18 17 14 12 11 10 9 10 10 12 13 12 12 12 13 13 14 14 14 15 15 14 14 16 17 19 18 17 16
42 38 34 28 27 25 24 25 25 27 26 25 25 27 26 27 26 25 22 19 18 16 14 12 11 10 9 11 12 14 13 13 14 14 14 14 15 15 15 15 15 16 17 18 19 18 16 16 18
44 40 34 30 29 26 26 26 29 29 27 24 24 26 26 26 25 23 21 20 18 15 13 12 11 10 10 12 13 14 14 14 14 14 16 16 16 16 17 17 17 18 18 18 18 17 17 17 17
47 38 36 32 30 30 28 30 31 32 29 25 24 25 27 26 25 22 21 21 18 15 13 11 10 10 11 13 13 14 15 15 14 15 16 17 18 18 17 18 18 18 18 18 17 15 15 16 17
48 43 42 33 30 31 31 35 34 34 29 27 25 26 26 25 25 22 22 20 18 14 12 11 11 11 12 14 14 14 15 14 14 15 16 18 18 18 17 17 18 18 18 17 15 14 13 12 13
55 54 45 37 31 33 34 34 36 37 32 27 27 26 27 26 25 23 22 20 18 14 13 12 11 12 14 15 14 14 15 14 14 16 17 17 17 16 17 17 17 17 16 13 10 9 8 7 10
53 53 44 39 34 34 37 35 37 37 33 27 26 26 27 25 23 23 21 20 18 15 14 13 12 13 15 15 14 15 17 15 15 16 18 17 17 16 16 16 16 15 13 10 7 6 5 6 11
43 47 45 41 35 33 40 37 37 34 32 28 25 23 23 24 23 21 21 19 18 15 15 15 15 16 16 15 15 16 17 16 16 16 17 17 15 14 15 15 13 12 10 7 6 6 6 6 8
56 50 50 43 36 34 36 33 33 31 29 26 23 21 21 22 20 20 20 18 16 16 16 17 17 17 17 17 17 18 18 16 17 16 17 15 13 12 13 11 9 8 7 7 7 7 7 8 8
61 52 49 43 38 35 35 33 29 30 28 24 23 22 21 20 20 19 18 17 16 17 17 18 18 17 18 18 18 19 17 16 16 17 16 14 12 11 11 9 8 8 8 8 8 8 8 9 9
58 51 47 44 40 45 37 41 27 28 27 22 21 20 20 19 19 18 18 17 16 16 18 18 18 18 18 19 20 18 16 16 16 16 15 13 12 12 11 9 8 9 9 9 9 9 9 9 9
56 53 50 47 45 42 39 37 26 26 26 23 20 19 19 19 17 17 17 15 16 17 18 19 20 18 19 20 19 16 16 16 15 14 14 13 13 13 12 10 9 10 10 10 10 11 11 10 11
51 50 50 50 55 56 47 35 25 26 23 21 21 20 17 16 15 15 16 21 16 17 18 19 19 20 21 20 17 17 18 18 15 13 13 14 15 14 13 11 10 10 11 12 13 15 15 15 15
49 51 65 61 61 55 49 35 23 21 25 23 22 20 18 18 17 18 19 18 18 19 19 20 20 22 19 17 18 19 20 18 14 13 14 15 16 16 16 14 12 12 13 15 18 19 19 20 21
51 46 53 52 52 46 42 35 21 20 26 23 21 21 18 18 19 20 20 21 22 23 22 21 21 17 18 20 20 20 17 15 15 15 16 16 18 20 21 20 19 18 19 19 20 21 23 25 27
54 52 39 48 47 43 42 31 24 24 27 25 23 21 21 20 20 21 21 23 24 24 20 16 17 19 20 19 18 16 15 15 16 17 17 18 20 22 24 24 24 23 23 23 23 25 27 29 31
53 49 48 49 47 37 39 35 32 29 28 27 26 24 23 22 22 23 25 24 22 18 16 16 17 17 17 16 16 16 16 16 18 19 20 21 23 24 26 28 28 27 28 29 31 31 32 32 33
60 54 51 48 45 40 37 29 25 25 26 26 26 25 25 25 27 27 25 21 17 16 17 17 16 15 15 16 16 17 18 19 21 21 21 23 24 26 26 27 27 28 30 31 33 35 37 38 37
61 53 49 47 42 47 36 28 29 29 28 30 30 31 31 30 28 23 21 18 18 18 15 14 15 15 16 16 16 17 18 20 21 22 23 24 24 25 25 26 27 28 30 33 34 36 38 38 38